Date String (YYYY-MM-DD hh:mm:ss) UTC,Instrument flags,absolute air pressure of the measurement (hPa),sample flow rate (lpm),inlet stack bypass flow (lpm),air temperature of the measurement (°C),ambient temperature measured by the external sensor (°C),aerosol sample conditioner tube jacket temperature (°C),OPC LED temperature (°C),internal box temperature (°C),relative humidity of the measurement (%),span deviation,mass concentration of particles derived from Lorenz-Mie calculation of OPC scattering (μg/m³),mass concentration of particles derived from Lorenz-Mie calculation of OPC scattering (μg/m³),mass concentration of particles derived from Lorenz-Mie calculation of OPC scattering (μg/m³)
DateTimeUTC,F1_M11,P_M11,Q1_M11,Q2_M11,T1_M11,T2_M11,T3_M11,T4_M11,T5_M11,U1_M11,ZSPAN_M11,X2_M11,X0_M11,X1_M11
2024-04-27 03:00:00,SystemResetWarning,0820.8,5.00,000.00,025.5,024.8,000.0,034.0,027.4,028.2,0000.0,0002.70,0004.37,0001.83
2024-04-27 03:01:00,SystemResetWarning,0820.8,5.00,000.00,025.5,024.8,000.0,034.0,027.4,027.9,0000.0,0002.71,0004.53,0001.84
2024-04-27 03:02:00,SystemResetWarning,0820.9,5.00,000.00,025.5,024.8,000.0,034.0,027.4,027.8,0000.0,0002.74,0004.69,0001.84
2024-04-27 03:03:00,SystemResetWarning,0820.8,5.00,000.00,025.5,024.8,000.0,034.0,027.4,027.8,0000.0,0002.76,0004.71,0001.84
2024-04-27 03:04:00,SystemResetWarning,0820.8,4.99,000.00,025.5,024.8,000.0,034.0,027.4,027.8,0000.0,0002.78,0004.81,0001.83
2024-04-27 03:05:00,SystemResetWarning,0820.9,5.00,000.00,025.5,024.8,000.0,034.0,027.4,027.6,0000.0,0002.81,0004.93,0001.82
2024-04-27 03:06:00,SystemResetWarning,0821.1,4.99,000.00,025.6,024.8,000.0,034.0,027.4,027.8,0000.0,0002.72,0004.76,0001.80
2024-04-27 03:07:00,SystemResetWarning,0821.1,5.00,000.00,025.6,024.8,000.0,034.0,027.4,027.7,0000.0,0002.68,0004.64,0001.79
2024-04-27 03:08:00,SystemResetWarning,0821.1,5.02,000.00,025.6,024.9,000.0,034.1,027.4,027.7,0000.0,0002.70,0004.59,0001.79
2024-04-27 03:09:00,SystemResetWarning,0820.9,5.00,000.00,025.6,024.9,000.0,034.1,027.4,028.0,0000.0,0002.63,0004.42,0001.78
2024-04-27 03:10:00,SystemResetWarning,0821.0,4.99,000.00,025.6,024.9,000.0,034.1,027.4,028.0,0000.0,0002.59,0004.30,0001.76
2024-04-27 03:11:00,SystemResetWarning,0821.1,5.00,000.00,025.6,024.9,000.0,034.1,027.4,028.1,0000.0,0002.61,0004.42,0001.77
2024-04-27 03:12:00,SystemResetWarning,0821.1,5.01,000.00,025.6,024.8,000.0,034.1,027.4,028.1,0000.0,0002.60,0004.38,0001.76
2024-04-27 03:13:00,SystemResetWarning,0821.1,5.00,000.00,025.6,024.8,000.0,034.1,027.4,028.1,0000.0,0002.56,0004.36,0001.76
2024-04-27 03:14:00,SystemResetWarning,0821.0,5.00,000.00,025.6,024.8,000.0,034.1,027.4,028.4,0000.0,0002.61,0004.59,0001.76
2024-04-27 03:15:00,SystemResetWarning,0821.3,5.00,000.00,025.6,024.8,000.0,034.1,027.4,028.9,0000.0,0002.68,0004.77,0001.79
2024-04-27 03:16:00,SystemResetWarning,0821.3,5.00,000.00,025.6,024.8,000.0,034.1,027.4,028.6,0000.0,0002.70,0004.93,0001.80
2024-04-27 03:17:00,SystemResetWarning,0821.4,5.00,000.00,025.6,024.8,000.0,034.1,027.4,028.6,0000.0,0002.77,0005.29,0001.81
2024-04-27 03:18:00,SystemResetWarning,0821.1,5.00,000.00,025.6,024.8,000.0,034.1,027.4,028.6,0000.0,0002.83,0005.41,0001.83
2024-04-27 03:19:00,SystemResetWarning,0821.2,5.00,000.00,025.6,024.8,000.0,034.1,027.4,028.5,0000.0,0002.88,0005.51,0001.85
2024-04-27 03:20:00,SystemResetWarning,0821.2,5.01,000.00,025.6,024.8,000.0,034.1,027.4,028.5,0000.0,0003.00,0005.97,0001.88
2024-04-27 03:21:00,SystemResetWarning,0821.2,5.00,000.00,025.6,024.8,000.0,034.1,027.4,028.3,0000.0,0003.10,0006.34,0001.90
2024-04-27 03:22:00,SystemResetWarning,0821.3,5.00,000.00,025.6,024.9,000.0,034.1,027.4,028.3,0000.0,0003.08,0006.27,0001.89
2024-04-27 03:23:00,SystemResetWarning,0821.3,5.00,000.00,025.6,024.9,000.0,034.1,027.4,028.2,0000.0,0003.12,0006.41,0001.90
2024-04-27 03:24:00,SystemResetWarning,0821.3,5.00,000.00,025.6,024.9,000.0,034.1,027.4,027.8,0000.0,0003.14,0006.41,0001.91
2024-04-27 03:25:00,SystemResetWarning,0821.4,5.00,000.00,025.6,024.9,000.0,034.1,027.4,028.1,0000.0,0003.10,0006.18,0001.90
2024-04-27 03:26:00,SystemResetWarning,0821.7,4.99,000.00,025.6,024.9,000.0,034.1,027.4,028.3,0000.0,0003.08,0006.10,0001.89
2024-04-27 03:27:00,SystemResetWarning,0821.8,5.00,000.00,025.6,024.8,000.0,034.1,027.5,028.2,0000.0,0003.12,0006.08,0001.91
2024-04-27 03:28:00,SystemResetWarning,0822.0,5.02,000.00,025.6,024.9,000.0,034.1,027.4,028.2,0000.0,0003.12,0005.82,0001.91
2024-04-27 03:29:00,SystemResetWarning,0821.9,5.00,000.00,025.6,024.9,000.0,034.1,027.4,028.3,0000.0,0003.12,0005.79,0001.91
2024-04-27 03:30:00,SystemResetWarning,0822.0,5.00,000.00,025.6,024.9,000.0,034.1,027.5,028.4,0000.0,0003.13,0005.87,0001.91
2024-04-27 03:31:00,SystemResetWarning,0822.0,4.99,000.00,025.6,024.9,000.0,034.1,027.4,028.4,0000.0,0003.13,0005.71,0001.93
2024-04-27 03:32:00,SystemResetWarning,0822.0,5.00,000.00,025.6,024.9,000.0,034.1,027.4,028.4,0000.0,0003.09,0005.51,0001.92
2024-04-27 03:33:00,SystemResetWarning,0821.9,4.99,000.00,025.6,024.9,000.0,034.1,027.4,028.0,0000.0,0003.12,0005.51,0001.95
2024-04-27 03:34:00,SystemResetWarning,0821.9,5.00,000.00,025.6,024.9,000.0,034.1,027.4,027.3,0000.0,0003.10,0005.79,0001.92
2024-04-27 03:35:00,SystemResetWarning,0821.6,5.01,000.00,025.6,024.8,000.0,034.1,027.4,026.6,0000.0,0003.05,0006.03,0001.87
2024-04-27 03:36:00,SystemResetWarning,0821.6,5.01,000.00,025.6,024.8,000.0,034.1,027.4,026.2,0000.0,0003.04,0006.03,0001.81
2024-04-27 03:37:00,SystemResetWarning,0821.6,4.99,000.00,025.6,024.8,000.0,034.1,027.3,026.0,0000.0,0002.91,0005.84,0001.74
2024-04-27 03:38:00,SystemResetWarning,0821.7,4.99,000.00,025.5,024.8,000.0,034.1,027.3,025.6,0000.0,0002.79,0005.70,0001.68
2024-04-27 03:39:00,SystemResetWarning,0821.7,4.99,000.00,025.5,024.7,000.0,034.1,027.3,025.1,0000.0,0002.75,0005.73,0001.63
2024-04-27 03:40:00,SystemResetWarning,0821.7,5.00,000.00,025.5,024.7,000.0,034.0,027.3,025.1,0000.0,0002.68,0005.74,0001.55
2024-04-27 03:41:00,SystemResetWarning,0821.7,5.01,000.00,025.5,024.7,000.0,034.0,027.3,024.7,0000.0,0002.61,0005.78,0001.46
2024-04-27 03:42:00,SystemResetWarning,0821.8,5.00,000.00,025.5,024.7,000.0,034.0,027.3,024.5,0000.0,0002.51,0005.64,0001.36
2024-04-27 03:43:00,SystemResetWarning,0821.8,5.00,000.00,025.5,024.6,000.0,034.0,027.2,024.7,0000.0,0002.40,0005.60,0001.27
2024-04-27 03:44:00,SystemResetWarning,0821.7,5.00,000.00,025.5,024.6,000.0,034.0,027.2,024.6,0000.0,0002.28,0005.59,0001.18
2024-04-27 03:45:00,SystemResetWarning,0821.8,5.00,000.00,025.5,024.6,000.0,034.0,027.2,024.5,0000.0,0002.19,0005.58,0001.13
2024-04-27 03:46:00,SystemResetWarning,0821.9,5.00,000.00,025.4,024.6,000.0,034.0,027.2,024.5,0000.0,0002.14,0005.40,0001.12
2024-04-27 03:47:00,SystemResetWarning,0821.9,5.00,000.00,025.4,024.6,000.0,034.0,027.2,024.6,0000.0,0002.13,0005.54,0001.10
2024-04-27 03:48:00,SystemResetWarning,0822.0,5.00,000.00,025.4,024.6,000.0,034.0,027.1,024.3,0000.0,0002.18,0005.65,0001.10
2024-04-27 03:49:00,SystemResetWarning,0822.0,4.99,000.00,025.4,024.5,000.0,033.9,027.1,024.0,0000.0,0002.18,0005.56,0001.07
2024-04-27 03:50:00,SystemResetWarning,0822.0,4.99,000.00,025.4,024.5,000.0,033.9,027.1,023.7,0000.0,0002.07,0005.30,0001.02
2024-04-27 03:51:00,SystemResetWarning,0822.0,5.01,000.00,025.4,024.5,000.0,033.9,027.1,023.6,0000.0,0001.98,0005.08,0000.98
2024-04-27 03:52:00,SystemResetWarning,0822.0,5.01,000.00,025.3,024.4,000.0,033.9,027.1,023.7,0000.0,0001.88,0004.86,0000.95
2024-04-27 03:53:00,SystemResetWarning,0822.0,5.00,000.00,025.3,024.4,000.0,033.9,027.1,024.0,0000.0,0001.81,0004.73,0000.93
2024-04-27 03:54:00,SystemResetWarning,0822.0,4.99,000.00,025.3,024.4,000.0,033.9,027.1,024.1,0000.0,0001.78,0004.57,0000.91
2024-04-27 03:55:00,SystemResetWarning,0821.9,5.01,000.00,025.3,024.4,000.0,033.9,027.0,024.2,0000.0,0001.78,0004.41,0000.88
2024-04-27 03:56:00,SystemResetWarning,0822.0,5.01,000.00,025.3,024.4,000.0,033.8,027.0,024.2,0000.0,0001.77,0004.30,0000.86
2024-04-27 03:57:00,SystemResetWarning,0822.0,4.99,000.00,025.3,024.4,000.0,033.8,027.0,024.2,0000.0,0001.76,0003.92,0000.83
2024-04-27 03:58:00,SystemResetWarning,0822.0,5.00,000.00,025.2,024.4,000.0,033.8,027.0,024.1,0000.0,0001.72,0003.70,0000.80
2024-04-27 03:59:00,SystemResetWarning,0822.0,5.00,000.00,025.2,024.3,000.0,033.8,026.9,024.1,0000.0,0001.63,0003.51,0000.76
